Hourly Weather Ouahigouya

Today, 25 September, Friday

Time Temperature Precipitation Wind Pressure Humidity
00:00 +30°C° 0 mm 5 mps 730 mmHg 63%
01:00 +30°C° 0 mm 5 mps 730 mmHg 66%
02:00 +29°C° 0 mm 5 mps 730 mmHg 68%
03:00 +29°C° 0 mm 5 mps 729 mmHg 71%
04:00 +28°C° 0 mm 4 mps 730 mmHg 73%
05:00 +28°C° 0 mm 4 mps 730 mmHg 75%
06:00 +27°C° 0 mm 3 mps 730 mmHg 76%
07:00 +29°C° 0 mm 4 mps 731 mmHg 69%
08:00 +32°C° 0 mm 4 mps 731 mmHg 62%
09:00 +33°C° 0 mm 4 mps 732 mmHg 56%
10:00 +35°C° 0 mm 4 mps 732 mmHg 50%
11:00 +36°C° 0 mm 3 mps 731 mmHg 44%
12:00 +37°C° 0 mm 2 mps 731 mmHg 39%
13:00 +37°C° 0 mm 3 mps 730 mmHg 39%
14:00 +37°C° 0 mm 3 mps 729 mmHg 39%
15:00 +38°C° 0 mm 4 mps 729 mmHg 38%
16:00 +37°C° 0 mm 4 mps 729 mmHg 42%
17:00 +36°C° 0 mm 4 mps 728 mmHg 45%
18:00 +35°C° 0 mm 4 mps 728 mmHg 49%
19:00 +34°C° 0 mm 4 mps 729 mmHg 52%
20:00 +33°C° 0 mm 3 mps 729 mmHg 55%
21:00 +31°C° 0 mm 3 mps 729 mmHg 57%
22:00 +31°C° 0 mm 3 mps 729 mmHg 59%
23:00 +30°C° 0 mm 4 mps 729 mmHg 61%

Tomorrow, 26 September, Saturday

Time Temperature Precipitation Wind Pressure Humidity
00:00 +30°C° 0 mm 4 mps 729 mmHg 62%
01:00 +29°C° 0 mm 3 mps 729 mmHg 64%
02:00 +29°C° 0 mm 3 mps 728 mmHg 65%
03:00 +29°C° 0 mm 3 mps 728 mmHg 66%
04:00 +28°C° 0 mm 3 mps 728 mmHg 67%
05:00 +28°C° 0 mm 3 mps 728 mmHg 69%
06:00 +28°C° 0 mm 3 mps 729 mmHg 70%
07:00 +29°C° 0 mm 4 mps 729 mmHg 66%
08:00 +30°C° 0 mm 5 mps 729 mmHg 62%
09:00 +33°C° 0 mm 6 mps 730 mmHg 59%
10:00 +34°C° 0 mm 6 mps 729 mmHg 53%
11:00 +35°C° 0 mm 6 mps 729 mmHg 48%
12:00 +38°C° 0 mm 6 mps 729 mmHg 42%
13:00 +37°C° 0 mm 5 mps 728 mmHg 40%
14:00 +39°C° 0 mm 5 mps 728 mmHg 39%
15:00 +38°C° 0 mm 4 mps 727 mmHg 37%
16:00 +37°C° 0 mm 4 mps 727 mmHg 39%
17:00 +36°C° 0 mm 4 mps 727 mmHg 42%
18:00 +35°C° 0 mm 4 mps 727 mmHg 45%
19:00 +34°C° 0 mm 4 mps 727 mmHg 49%
20:00 +33°C° 0 mm 4 mps 728 mmHg 52%
21:00 +33°C° 0 mm 4 mps 728 mmHg 56%
22:00 +32°C° 1.2 mm 4 mps 728 mmHg 58%
23:00 +30°C° 1.2 mm 4 mps 728 mmHg 61%

Day after tomorrow, 27 September, Sunday

Time Temperature Precipitation Wind Pressure Humidity
00:00 +29°C° 1.2 mm 5 mps 728 mmHg 64%
01:00 +29°C° 0 mm 5 mps 728 mmHg 67%
02:00 +29°C° 0 mm 5 mps 727 mmHg 71%
03:00 +28°C° 0 mm 5 mps 727 mmHg 74%
04:00 +28°C° 0 mm 5 mps 727 mmHg 75%
05:00 +28°C° 0 mm 6 mps 727 mmHg 75%
06:00 +28°C° 0 mm 6 mps 727 mmHg 75%
07:00 +29°C° 0 mm 5 mps 727 mmHg 71%
08:00 +29°C° 0 mm 5 mps 728 mmHg 67%
09:00 +30°C° 0 mm 5 mps 728 mmHg 62%
10:00 +32°C° 0 mm 5 mps 728 mmHg 56%
11:00 +34°C° 0 mm 5 mps 728 mmHg 50%
12:00 +36°C° 0 mm 5 mps 728 mmHg 44%
13:00 +36°C° 0 mm 4 mps 727 mmHg 41%
14:00 +37°C° 0 mm 4 mps 727 mmHg 39%
15:00 +38°C° 0 mm 3 mps 726 mmHg 36%
16:00 +37°C° 0 mm 3 mps 726 mmHg 40%
17:00 +36°C° 0 mm 4 mps 727 mmHg 44%
18:00 +34°C° 0 mm 4 mps 727 mmHg 48%
19:00 +33°C° 1.6 mm 4 mps 727 mmHg 56%
20:00 +30°C° 1.6 mm 4 mps 728 mmHg 64%
21:00 +28°C° 1.6 mm 4 mps 728 mmHg 72%
22:00 +28°C° 0.6 mm 5 mps 729 mmHg 72%
23:00 +27°C° 0.6 mm 5 mps 729 mmHg 73%

28 September, Monday

Time Temperature Precipitation Wind Pressure Humidity
00:00 +27°C° 0.6 mm 6 mps 729 mmHg 73%
01:00 +27°C° 0 mm 4 mps 729 mmHg 73%
02:00 +27°C° 0 mm 3 mps 728 mmHg 73%
03:00 +27°C° 0 mm 2 mps 728 mmHg 73%
04:00 +27°C° 0 mm 2 mps 728 mmHg 73%
05:00 +27°C° 0 mm 3 mps 728 mmHg 73%
06:00 +27°C° 0 mm 4 mps 728 mmHg 73%
07:00 +28°C° 0 mm 4 mps 729 mmHg 68%
08:00 +29°C° 0 mm 4 mps 729 mmHg 63%
09:00 +32°C° 0 mm 4 mps 729 mmHg 58%
10:00 +33°C° 0 mm 4 mps 729 mmHg 53%
11:00 +35°C° 0 mm 4 mps 729 mmHg 47%
12:00 +36°C° 0 mm 4 mps 729 mmHg 41%
13:00 +37°C° 0 mm 3 mps 728 mmHg 39%
14:00 +37°C° 0 mm 3 mps 728 mmHg 36%
15:00 +38°C° 0 mm 2 mps 727 mmHg 34%
16:00 +37°C° 0 mm 2 mps 727 mmHg 36%
17:00 +36°C° 0 mm 2 mps 727 mmHg 39%
18:00 +35°C° 0 mm 2 mps 727 mmHg 41%
19:00 +34°C° 0 mm 2 mps 727 mmHg 44%
20:00 +34°C° 0 mm 2 mps 728 mmHg 46%
21:00 +33°C° 0 mm 3 mps 729 mmHg 48%
22:00 +32°C° 0 mm 2 mps 729 mmHg 49%
23:00 +31°C° 0 mm 2 mps 729 mmHg 49%

29 September, Tuesday

Time Temperature Precipitation Wind Pressure Humidity
00:00 +31°C° 0 mm 2 mps 729 mmHg 50%
01:00 +31°C° 0 mm 2 mps 729 mmHg 52%
02:00 +30°C° 0 mm 3 mps 728 mmHg 53%
03:00 +30°C° 0 mm 3 mps 728 mmHg 55%
04:00 +29°C° 0 mm 3 mps 728 mmHg 56%
05:00 +29°C° 0 mm 2 mps 728 mmHg 56%
06:00 +29°C° 0 mm 2 mps 729 mmHg 57%
07:00 +31°C° 0 mm 2 mps 729 mmHg 51%
08:00 +32°C° 0 mm 2 mps 729 mmHg 46%
09:00 +35°C° 0 mm 2 mps 730 mmHg 40%
10:00 +36°C° 0 mm 2 mps 730 mmHg 36%
11:00 +38°C° 0 mm 2 mps 729 mmHg 32%
12:00 +39°C° 0 mm 1 mps 729 mmHg 27%
13:00 +40°C° 0 mm 2 mps 728 mmHg 26%
14:00 +40°C° 0 mm 3 mps 728 mmHg 25%
15:00 +42°C° 0 mm 4 mps 727 mmHg 24%
16:00 +41°C° 0 mm 4 mps 727 mmHg 27%
17:00 +39°C° 0 mm 3 mps 727 mmHg 29%
18:00 +37°C° 0 mm 3 mps 727 mmHg 32%
19:00 +36°C° 0 mm 3 mps 727 mmHg 37%
20:00 +35°C° 0 mm 3 mps 728 mmHg 41%
21:00 +34°C° 0 mm 4 mps 728 mmHg 45%
22:00 +33°C° 0 mm 4 mps 728 mmHg 50%
23:00 +32°C° 0 mm 4 mps 728 mmHg 56%

30 September, Wednesday

Time Temperature Precipitation Wind Pressure Humidity
00:00 +30°C° 0 mm 4 mps 728 mmHg 61%
01:00 +30°C° 0 mm 4 mps 728 mmHg 61%
02:00 +29°C° 0 mm 4 mps 728 mmHg 61%
03:00 +29°C° 0 mm 4 mps 727 mmHg 61%
04:00 +29°C° 0 mm 4 mps 727 mmHg 60%
05:00 +28°C° 0 mm 4 mps 728 mmHg 59%
06:00 +28°C° 0 mm 5 mps 728 mmHg 59%
07:00 +29°C° 0 mm 5 mps 728 mmHg 56%
08:00 +32°C° 0 mm 5 mps 729 mmHg 53%
09:00 +33°C° 0 mm 5 mps 729 mmHg 50%
10:00 +35°C° 0 mm 5 mps 729 mmHg 46%
11:00 +36°C° 0 mm 5 mps 728 mmHg 41%
12:00 +39°C° 0 mm 5 mps 728 mmHg 37%
13:00 +39°C° 0 mm 5 mps 727 mmHg 35%
14:00 +40°C° 0 mm 4 mps 726 mmHg 33%
15:00 +40°C° 0 mm 3 mps 726 mmHg 31%
16:00 +40°C° 0 mm 4 mps 726 mmHg 34%
17:00 +37°C° 0 mm 4 mps 725 mmHg 37%
18:00 +36°C° 0 mm 4 mps 725 mmHg 41%
19:00 +35°C° 0 mm 5 mps 726 mmHg 44%
20:00 +34°C° 0 mm 5 mps 726 mmHg 48%
21:00 +34°C° 0 mm 6 mps 726 mmHg 52%
22:00 +33°C° 0 mm 6 mps 726 mmHg 56%
23:00 +32°C° 0 mm 6 mps 726 mmHg 60%
Show more